sat.trackr.live / text

‹ back to catalog

STARLINK-4620

NORAD 53674 · 2022-105AC

PAYLOAD ACTIVE UNKNOWN

§ Identity

Operator
Country
US
Launch date
2022-08-31
Launch site
AFWTR
Launch vehicle
Mass (kg)
RCS (m²)

Purposes: comms

External: N2YO · Heavens-Above · Gunter

§ Orbital elements

Epoch: 2026-09-20T21:36:50.204448Z

Period
95.64 min
Inclination
97.2839°
Eccentricity
0.0001894
Mean motion
15.05652239 rev/d
Perigee alt
548.2 km
Apogee alt
550.8 km
Semi-major
6,927.6 km
B*
-3.6068e-5
RAAN
137.6596°
Arg perigee
84.6927°
Mean anomaly
275.4516°
Rev number
22,260

§ Raw data

STARLINK-46201 53674U 22105AC  26263.90058107 -.00000577  00000+0 -36068-4 0  99912 53674  97.2839 137.6596 0001894  84.6927 275.4516 15.05652239222600

JSON: /api/v1/satellites/53674 · /tle

For live sub-satellite position, see the globe view (requires WebGL).

§ Visibility from observer

Set your observer location to see the next 7 days of passes ≥ 10°. The values pass through the URL so the page stays shareable.

No JS? Fill the form by hand. The geolocation button needs JavaScript.